sat.trackr.live / text

‹ back to catalog

STARLINK-4473

NORAD 53660 · 2022-105N

PAYLOAD ACTIVE UNKNOWN

§ Identity

Operator
Country
US
Launch date
2022-08-31
Launch site
AFWTR
Launch vehicle
Mass (kg)
RCS (m²)

Purposes: comms

External: N2YO · Heavens-Above · Gunter

§ Orbital elements

Epoch: 2026-05-25T03:24:52.972128Z

Period
95.64 min
Inclination
97.4521°
Eccentricity
0.0001814
Mean motion
15.05657111 rev/d
Perigee alt
548.2 km
Apogee alt
550.7 km
Semi-major
6,927.6 km
B*
-4.9786e-6
RAAN
25.1271°
Arg perigee
82.5410°
Mean anomaly
277.6024°
Rev number
20,473

§ Raw data

STARLINK-44731 53660U 22105N   26145.14227977 -.00000130  00000+0 -49786-5 0  99912 53660  97.4521  25.1271 0001814  82.5410 277.6024 15.05657111204738

JSON: /api/v1/satellites/53660 · /tle

For live sub-satellite position, see the globe view (requires WebGL).

§ Visibility from observer

Set your observer location to see the next 7 days of passes ≥ 10°. The values pass through the URL so the page stays shareable.

No JS? Fill the form by hand. The geolocation button needs JavaScript.